Weather History for KFOK - July, 2013

Change the Weather History Date:

Wednesday, July 10, 2013

  Actual Average Record
Temperature  
Mean Temperature 76 °F -  
Max Temperature 82 °F 78 °F 91 °F (2000)
Min Temperature 71 °F 59 °F 50 °F (2004)
Cooling Degree Days 11    
Growing Degree Days 26 (Base 50)    
Moisture  
Dew Point 71 °F    
Average Humidity 85    
Maximum Humidity 94    
Minimum Humidity 74    
Precipitation  
Precipitation 0.00 in - - ()
Sea Level Pressure  
Sea Level Pressure 29.95 in    
Wind  
Wind Speed 7 mph (SSW)    
Max Wind Speed 14 mph    
Max Gust Speed 24 mph    
Visibility 10 miles    
Events      
Averages and records for this station are not official NWS values.
T = Trace of Precipitation, MM = Missing Value Source: NWS Daily Summary

Daily Weather History Graph

Daily Weather History Graph

Search for Another Location

Airport or City:

Trip Planner

Search our weather history database for the weather conditions in past years. The results will help you decide how hot, cold, wet, or windy it might be!

Date:

Astronomy

Jul. 10, 2013 Rise Set
Actual Time 5:28 AM EDT 8:23 PM EDT
Civil Twilight 4:55 AM EDT 8:56 PM EDT
Nautical Twilight 4:13 AM EDT 9:37 PM EDT
Astronomical Twilight 3:25 AM EDT 10:25 PM EDT
Moon 7:47 AM EDT (7/10) 9:30 PM EDT (7/10)
Length of Visible Light 16h 00m
Length of Day
14h 55m
Waxing Crescent, 5% of the Moon is Illuminated
Jul 10
Waxing Crescent
Jul 15
First Quarter
Jul 22
Full
Jul 29
Last Quarter
Aug 6
New

Hourly Weather History & Observations

Time (EDT) Temp. Heat Index Dew Point Humidity Pressure Visibility Wind Dir Wind Speed Gust Speed Precip Events Conditions
12:23 AM 73.4 °F - 71.6 °F 94% 30.05 in 10.0 mi SW 4.6 mph - N/A   Overcast
12:53 AM 73.9 °F - 71.1 °F 91% 30.04 in 10.0 mi Variable 4.6 mph - N/A   Overcast
1:53 AM 73.9 °F - 71.1 °F 91% 30.03 in 10.0 mi SSW 5.8 mph - N/A   Overcast
2:53 AM 73.0 °F - 71.1 °F 93% 30.01 in 10.0 mi SW 4.6 mph - N/A   Overcast
3:53 AM 73.0 °F - 71.1 °F 93% 30.00 in 10.0 mi Calm Calm - N/A   Overcast
4:34 AM 73.4 °F - 71.6 °F 94% 29.99 in 10.0 mi Calm Calm - N/A   Overcast
4:53 AM 72.0 °F - 70.0 °F 93% 29.99 in 10.0 mi Calm Calm - N/A   Mostly Cloudy
5:53 AM 73.0 °F - 70.0 °F 90% 30.01 in 10.0 mi Calm Calm - N/A   Overcast
6:21 AM 71.6 °F - 69.8 °F 94% 30.01 in 10.0 mi South 3.5 mph - N/A   Mostly Cloudy
6:53 AM 73.9 °F - 72.0 °F 93% 30.01 in 10.0 mi Calm Calm - N/A   Mostly Cloudy
7:37 AM 75.2 °F - 71.6 °F 89% 30.01 in 10.0 mi South 6.9 mph - N/A   Mostly Cloudy
7:53 AM 75.9 °F - 71.1 °F 85% 30.00 in 10.0 mi SSW 6.9 mph - N/A   Partly Cloudy
8:53 AM 78.1 °F - 70.0 °F 76% 30.00 in 10.0 mi SSW 10.4 mph 17.3 mph N/A   Clear
9:25 AM 78.8 °F - 69.8 °F 74% 29.99 in 10.0 mi South 9.2 mph 17.3 mph N/A   Mostly Cloudy
9:35 AM 78.8 °F - 69.8 °F 74% 29.99 in 10.0 mi SSW 11.5 mph - N/A   Overcast
9:53 AM 79.0 °F - 71.1 °F 77% 29.98 in 10.0 mi SSW 5.8 mph - N/A   Overcast
10:53 AM 81.0 °F 85.2 °F 72.0 °F 74% 29.97 in 10.0 mi SSW 10.4 mph - N/A   Mostly Cloudy
11:21 AM 78.8 °F - 71.6 °F 78% 29.97 in 10.0 mi SSW 12.7 mph - N/A   Overcast
11:53 AM 80.1 °F 84.2 °F 73.0 °F 79% 29.96 in 10.0 mi SSW 10.4 mph 17.3 mph N/A   Overcast
12:53 PM 79.0 °F - 72.0 °F 79% 29.94 in 10.0 mi South 12.7 mph 19.6 mph N/A   Overcast
1:53 PM 79.0 °F - 73.0 °F 82% 29.92 in 10.0 mi SSW 12.7 mph 19.6 mph N/A   Overcast
2:10 PM 78.8 °F - 73.4 °F 83% 29.91 in 2.0 mi SSW 13.8 mph 24.2 mph N/A   Haze
2:53 PM 78.1 °F - 73.0 °F 84% 29.91 in 2.0 mi SSW 12.7 mph 21.9 mph N/A   Haze
3:00 PM 78.8 °F - 73.4 °F 83% 29.90 in 10.0 mi SW 10.4 mph 19.6 mph N/A   Overcast
3:53 PM 75.9 °F - 71.1 °F 85% 29.90 in 10.0 mi SW 11.5 mph 21.9 mph N/A   Overcast
4:50 PM 80.6 °F 84.6 °F 71.6 °F 74% 29.86 in 10.0 mi SW 11.5 mph - 0.00 in   Scattered Clouds
4:53 PM 80.1 °F 83.6 °F 71.1 °F 74% 29.86 in 10.0 mi SSW 6.9 mph - 0.00 in   Partly Cloudy
5:53 PM 79.0 °F - 71.1 °F 77% 29.85 in 10.0 mi SSW 12.7 mph 18.4 mph N/A   Clear
6:53 PM 77.0 °F - 70.0 °F 79% 29.86 in 10.0 mi SW 11.5 mph 21.9 mph N/A   Clear
7:53 PM 75.9 °F - 72.0 °F 87% 29.88 in 10.0 mi SW 9.2 mph 21.9 mph N/A   Partly Cloudy
8:53 PM 75.0 °F - 72.0 °F 90% 29.87 in 10.0 mi SW 10.4 mph 19.6 mph N/A   Mostly Cloudy
9:53 PM 75.0 °F - 72.0 °F 90% 29.88 in 10.0 mi SW 10.4 mph 19.6 mph N/A   Mostly Cloudy
10:24 PM 75.2 °F - 71.6 °F 89% 29.89 in 10.0 mi SW 10.4 mph 18.4 mph N/A   Scattered Clouds
10:51 PM 73.4 °F - 71.6 °F 94% 29.87 in 10.0 mi SW 12.7 mph - N/A   Mostly Cloudy
10:53 PM 73.9 °F - 71.1 °F 91% 29.87 in 10.0 mi SW 9.2 mph - N/A   Scattered Clouds
11:53 PM 73.9 °F - 71.1 °F 91% 29.86 in 10.0 mi SW 10.4 mph - N/A   Clear